FW9370 Weather Reports


Display with metric or nautical units.
time (UTC)temp
F
wind
direction
speed
MPH
gust
MPH
rain 1hr
in
rain 24hr
in
rain mn
in
humidity
%
barometer
mb
20260505200033 54 333 6.0 12.0 0.00 0.02 0.00 76 1013.8
20260505194532 54 343 6.0 12.0 0.00 0.02 0.00 75 1013.7
20260505193032 55 19 7.0 13.0 0.00 0.02 0.00 74 1013.5
20260505191529 55 332 5.0 13.0 0.00 0.02 0.00 71 1013.5
20260505190035 56 24 8.0 12.0 0.00 0.02 0.00 70 1013.5
20260505184532 56 10 7.0 14.0 0.00 0.02 0.00 70 1013.4
20260505183044 56 17 9.0 15.0 0.00 0.02 0.00 70 1013.4
20260505181534 57 4 7.0 15.0 0.00 0.02 0.00 69 1013.3
20260505180031 57 316 5.0 12.0 0.00 0.02 0.00 69 1013.3
20260505174528 57 257 8.0 16.0 0.00 0.02 0.00 68 1013.3
20260505173040 58 323 9.0 17.0 0.00 0.02 0.00 67 1013.2
20260505171542 58 18 7.0 15.0 0.00 0.02 0.00 67 1013.3
20260505170030 58 34 8.0 13.0 0.00 0.02 0.00 64 1013.3
20260505164531 58 76 6.0 12.0 0.00 0.02 0.00 63 1013.3
20260505163030 59 39 5.0 12.0 0.00 0.02 0.00 64 1013.2
20260505161532 58 328 8.0 14.0 0.00 0.02 0.00 64 1013.2
20260505153032 59 78 5.0 13.0 0.00 0.02 0.00 61 1013.4
20260505151536 60 25 4.0 13.0 0.00 0.02 0.00 62 1013.3
20260505124533 60 53 2.0 8.0 0.00 0.02 0.00 57 1013.6
20260505123035 60 24 3.0 9.0 0.00 0.02 0.00 58 1013.7
20260505121537 60 117 1.0 9.0 0.00 0.02 0.00 60 1013.6
20260505120054 60 347 4.0 9.0 0.00 0.02 0.00 56 1013.6
20260505114530 59 70 7.0 16.0 0.00 0.09 0.00 61 1013.7
20260505113032 58 96 5.0 10.0 0.00 0.09 0.00 62 1013.8
20260505111528 58 16 3.0 10.0 0.00 0.09 0.00 61 1013.9
20260505101529 58 50 5.0 8.0 0.00 0.09 0.00 63 1014.4
20260505100030 56 41 2.0 10.0 0.00 0.09 0.00 64 1014.4
20260505094530 57 301 5.0 10.0 0.00 0.09 0.00 66 1014.5
20260505093033 56 6 5.0 10.0 0.00 0.09 0.00 66 1014.5
20260505091530 56 18 5.0 10.0 0.00 0.09 0.00 69 1014.6
20260505090040 55 30 5.0 10.0 0.00 0.09 0.00 70 1014.6
20260505084530 56 41 4.0 9.0 0.00 0.10 0.00 72 1014.6
20260505083029 56 89 1.0 5.0 0.00 0.10 0.00 75 1014.5
20260505081539 55 89 1.0 6.0 0.00 0.10 0.00 78 1014.6
20260505080038 54 70 1.0 5.0 0.00 0.10 0.00 81 1014.6
20260505074531 53 37 2.0 8.0 0.00 0.11 0.00 83 1014.5
20260505073046 53 309 3.0 7.0 0.00 0.11 0.00 86 1014.5
20260505071530 53 14 3.0 7.0 0.00 0.11 0.00 87 1014.5
20260505070034 53 326 2.0 4.0 0.00 0.11 0.00 88 1014.6
20260505064540 53 13 1.0 5.0 0.00 0.15 0.00 87 1014.6
20260505063030 53 0 0.0 2.0 0.00 0.15 0.00 87 1014.6
20260505061547 53 29 1.0 4.0 0.00 0.15 0.00 88 1014.4
20260505060035 52 0 0.0 2.0 0.00 0.15 0.00 88 1014.4
20260505054556 52 0 0.0 4.0 0.00 0.24 0.00 88 1014.3
20260505053035 53 14 0.0 3.0 0.00 0.24 0.00 88 1014.3
20260505051533 53 340 1.0 5.0 0.00 0.24 0.00 88 1014.3
20260505041531 53 0 0.0 3.0 0.00 0.25 0.00 89 1014.2
20260505040030 54 27 0.0 2.0 0.00 0.25 0.00 89 1014.3
20260505034530 54 0 0.0 3.0 0.00 0.25 0.00 89 1014.1
20260505033030 53 0 0.0 4.0 0.00 0.25 0.00 88 1014.2
20260505031542 54 0 0.0 4.0 0.00 0.25 0.00 89 1014.2
20260505030031 54 0 0.0 2.0 0.00 0.25 0.00 89 1014.2
20260505024538 54 90 0.0 2.0 0.00 0.25 0.00 90 1014.1
20260505023033 54 0 0.0 1.0 0.00 0.25 0.00 90 1014.2
20260505021532 54 18 0.0 1.0 0.00 0.25 0.00 90 1014.1
20260505020033 54 0 0.0 3.0 0.00 0.25 0.00 90 1014.2
20260505014535 55 86 1.0 4.0 0.00 0.25 0.00 90 1014.2
20260505013029 54 53 1.0 4.0 0.00 0.25 0.00 90 1014.4
20260505011534 54 79 0.0 3.0 0.00 0.25 0.00 91 1014.4
20260505010030 55 0 0.0 2.0 0.00 0.25 0.00 92 1014.5
20260505004544 55 0 0.0 2.0 0.00 0.25 0.00 92 1014.6
20260505003032 55 25 0.0 2.0 0.00 0.25 0.00 92 1014.7
20260505001531 55 43 0.0 3.0 0.00 0.25 0.00 93 1014.7
20260505000049 55 18 0.0 2.0 0.00 0.25 0.00 93 1014.8
20260504234532 55 0 0.0 2.0 0.00 0.25 0.00 93 1014.8
20260504233032 55 0 0.0 4.0 0.00 0.25 0.00 93 1014.8
20260504231532 55 99 2.0 5.0 0.02 0.25 0.00 93 1014.9
20260504230030 55 80 1.0 5.0 0.02 0.25 0.00 93 1014.8
20260504224532 55 75 0.0 6.0 0.02 0.25 0.25 93 1014.8
20260504223030 55 0 0.0 2.0 0.01 0.25 0.25 92 1014.9
20260504221539 56 98 0.0 6.0 0.00 0.23 0.23 92 1014.9
20260504220031 56 49 1.0 4.0 0.00 0.23 0.23 90 1014.9
20260504214535 56 118 2.0 7.0 0.00 0.23 0.23 89 1015.0
20260504213028 56 14 1.0 6.0 0.00 0.23 0.23 88 1014.8
20260504211531 57 346 3.0 6.0 0.00 0.23 0.23 87 1014.9
20260504210034 57 359 3.0 8.0 0.00 0.23 0.23 86 1014.8
20260504204531 57 340 3.0 8.0 0.00 0.23 0.23 86 1014.7
20260504203034 57 6 4.0 8.0 0.00 0.23 0.23 86 1014.7
20260504201532 57 16 3.0 8.0 0.00 0.23 0.23 86 1014.5